Meteo pe oră la Bolshoe Makarovo

Astăzi, 18 Mai, Marţi

Timp Temperatura Precipitaţii Vânt Presiune Umiditate
00:00 +16°C° 0 mm 3 m/s 745 mmHg 93%
01:00 +16°C° 0 mm 3 m/s 745 mmHg 94%
02:00 +16°C° 0 mm 3 m/s 745 mmHg 95%
03:00 +16°C° 0 mm 3 m/s 745 mmHg 93%
04:00 +17°C° 0 mm 3 m/s 745 mmHg 91%
05:00 +17°C° 0 mm 4 m/s 745 mmHg 88%
06:00 +19°C° 0 mm 4 m/s 745 mmHg 81%
07:00 +21°C° 0 mm 4 m/s 745 mmHg 73%
08:00 +22°C° 0 mm 5 m/s 745 mmHg 65%
09:00 +25°C° 0 mm 5 m/s 745 mmHg 60%
10:00 +26°C° 0 mm 5 m/s 745 mmHg 54%
11:00 +27°C° 0 mm 6 m/s 745 mmHg 49%
12:00 +28°C° 0 mm 6 m/s 745 mmHg 49%
13:00 +28°C° 0 mm 6 m/s 745 mmHg 48%
14:00 +29°C° 0 mm 6 m/s 745 mmHg 47%
15:00 +28°C° 0 mm 6 m/s 745 mmHg 49%
16:00 +27°C° 0 mm 5 m/s 744 mmHg 52%
17:00 +26°C° 0 mm 5 m/s 744 mmHg 54%
18:00 +23°C° 0 mm 5 m/s 744 mmHg 59%
19:00 +21°C° 0 mm 4 m/s 744 mmHg 65%
20:00 +20°C° 0 mm 4 m/s 744 mmHg 70%
21:00 +19°C° 0 mm 4 m/s 744 mmHg 71%
22:00 +19°C° 0 mm 4 m/s 744 mmHg 72%
23:00 +19°C° 0 mm 4 m/s 744 mmHg 74%

Mâine, 19 Mai, Miercuri

Timp Temperatura Precipitaţii Vânt Presiune Umiditate
00:00 +18°C° 0 mm 4 m/s 744 mmHg 79%
01:00 +17°C° 0 mm 4 m/s 744 mmHg 84%
02:00 +16°C° 0 mm 3 m/s 744 mmHg 89%
03:00 +17°C° 0 mm 3 m/s 744 mmHg 87%
04:00 +17°C° 0 mm 4 m/s 744 mmHg 85%
05:00 +17°C° 0 mm 4 m/s 744 mmHg 82%
06:00 +19°C° 0 mm 4 m/s 744 mmHg 76%
07:00 +21°C° 0 mm 5 m/s 744 mmHg 70%
08:00 +22°C° 0 mm 5 m/s 744 mmHg 63%
09:00 +23°C° 0 mm 5 m/s 744 mmHg 60%
10:00 +24°C° 0 mm 6 m/s 744 mmHg 57%
11:00 +26°C° 0 mm 6 m/s 743 mmHg 53%
12:00 +27°C° 0 mm 6 m/s 743 mmHg 53%
13:00 +27°C° 0 mm 6 m/s 743 mmHg 53%
14:00 +28°C° 0 mm 5 m/s 743 mmHg 52%
15:00 +27°C° 0.1 mm 5 m/s 743 mmHg 56%
16:00 +26°C° 0.1 mm 4 m/s 743 mmHg 59%
17:00 +25°C° 0.1 mm 3 m/s 743 mmHg 63%
18:00 +22°C° 0.2 mm 3 m/s 743 mmHg 70%
19:00 +20°C° 0.2 mm 2 m/s 743 mmHg 78%
20:00 +18°C° 0.2 mm 2 m/s 744 mmHg 86%
21:00 +19°C° 0.3 mm 1 m/s 743 mmHg 88%
22:00 +18°C° 0.3 mm 1 m/s 743 mmHg 90%
23:00 +18°C° 0.3 mm 1 m/s 743 mmHg 92%

Poimâine, 20 Mai, Joi

Timp Temperatura Precipitaţii Vânt Presiune Umiditate
00:00 +18°C° 1.5 mm 1 m/s 743 mmHg 93%
01:00 +16°C° 1.5 mm 2 m/s 743 mmHg 95%
02:00 +16°C° 1.5 mm 2 m/s 743 mmHg 96%
03:00 +17°C° 0.5 mm 3 m/s 743 mmHg 95%
04:00 +17°C° 0.5 mm 3 m/s 743 mmHg 95%
05:00 +17°C° 0.5 mm 3 m/s 742 mmHg 94%
06:00 +18°C° 0 mm 4 m/s 742 mmHg 88%
07:00 +19°C° 0 mm 4 m/s 742 mmHg 82%
08:00 +20°C° 0 mm 4 m/s 742 mmHg 76%
09:00 +21°C° 0 mm 4 m/s 742 mmHg 73%
10:00 +21°C° 0 mm 5 m/s 742 mmHg 71%
11:00 +22°C° 0 mm 5 m/s 742 mmHg 69%
12:00 +21°C° 0.7 mm 5 m/s 742 mmHg 72%
13:00 +20°C° 0.7 mm 5 m/s 742 mmHg 76%
14:00 +19°C° 0.7 mm 5 m/s 742 mmHg 80%
15:00 +20°C° 0.1 mm 5 m/s 742 mmHg 77%
16:00 +20°C° 0.1 mm 5 m/s 742 mmHg 74%
17:00 +20°C° 0.1 mm 5 m/s 742 mmHg 70%
18:00 +18°C° 0 mm 4 m/s 741 mmHg 74%
19:00 +17°C° 0 mm 4 m/s 741 mmHg 78%
20:00 +15°C° 0 mm 4 m/s 741 mmHg 81%
21:00 +14°C° 0 mm 4 m/s 741 mmHg 84%
22:00 +14°C° 0 mm 4 m/s 741 mmHg 87%
23:00 +13°C° 0 mm 3 m/s 741 mmHg 90%

21 Mai, Vineri

Timp Temperatura Precipitaţii Vânt Presiune Umiditate
00:00 +13°C° 0 mm 3 m/s 741 mmHg 92%
01:00 +12°C° 0 mm 3 m/s 741 mmHg 95%
02:00 +13°C° 0 mm 2 m/s 740 mmHg 98%
03:00 +12°C° 0 mm 3 m/s 740 mmHg 97%
04:00 +12°C° 0 mm 3 m/s 740 mmHg 96%
05:00 +12°C° 0 mm 3 m/s 740 mmHg 95%
06:00 +12°C° 0.2 mm 3 m/s 740 mmHg 94%
07:00 +12°C° 0.2 mm 3 m/s 740 mmHg 93%
08:00 +12°C° 0.2 mm 3 m/s 740 mmHg 93%
09:00 +12°C° 0.1 mm 3 m/s 741 mmHg 90%
10:00 +12°C° 0.1 mm 3 m/s 741 mmHg 88%
11:00 +12°C° 0.1 mm 3 m/s 741 mmHg 86%
12:00 +12°C° 0.1 mm 4 m/s 741 mmHg 83%
13:00 +12°C° 0.1 mm 4 m/s 742 mmHg 80%
14:00 +13°C° 0.1 mm 4 m/s 742 mmHg 77%
15:00 +12°C° 0 mm 4 m/s 743 mmHg 79%
16:00 +12°C° 0 mm 5 m/s 744 mmHg 81%
17:00 +10°C° 0 mm 5 m/s 744 mmHg 83%
18:00 +10°C° 0 mm 5 m/s 745 mmHg 82%
19:00 +11°C° 0 mm 4 m/s 746 mmHg 82%
20:00 +10°C° 0 mm 4 m/s 747 mmHg 82%
21:00 +9°C° 0 mm 3 m/s 747 mmHg 86%
22:00 +8°C° 0 mm 3 m/s 748 mmHg 89%
23:00 +7°C° 0 mm 2 m/s 748 mmHg 93%

22 Mai, Sâmbătă

Timp Temperatura Precipitaţii Vânt Presiune Umiditate
00:00 +7°C° 0 mm 2 m/s 749 mmHg 91%
01:00 +8°C° 0 mm 2 m/s 749 mmHg 90%
02:00 +8°C° 0 mm 3 m/s 749 mmHg 88%
03:00 +8°C° 0 mm 3 m/s 749 mmHg 86%
04:00 +9°C° 0 mm 3 m/s 750 mmHg 84%
05:00 +9°C° 0 mm 3 m/s 750 mmHg 82%
06:00 +11°C° 0 mm 3 m/s 751 mmHg 72%
07:00 +12°C° 0 mm 3 m/s 751 mmHg 63%
08:00 +14°C° 0 mm 4 m/s 751 mmHg 53%
09:00 +16°C° 0 mm 3 m/s 751 mmHg 50%
10:00 +17°C° 0 mm 3 m/s 751 mmHg 47%
11:00 +18°C° 0 mm 3 m/s 751 mmHg 44%
12:00 +18°C° 0 mm 3 m/s 751 mmHg 43%
13:00 +19°C° 0 mm 3 m/s 751 mmHg 42%
14:00 +19°C° 0 mm 3 m/s 751 mmHg 41%
15:00 +19°C° 0 mm 2 m/s 751 mmHg 44%
16:00 +19°C° 0 mm 2 m/s 751 mmHg 48%
17:00 +19°C° 0 mm 2 m/s 751 mmHg 52%
18:00 +18°C° 0 mm 1 m/s 751 mmHg 58%
19:00 +15°C° 0 mm 1 m/s 751 mmHg 63%
20:00 +13°C° 0 mm 1 m/s 751 mmHg 69%
21:00 +12°C° 0 mm 1 m/s 751 mmHg 74%
22:00 +10°C° 0 mm 2 m/s 751 mmHg 80%
23:00 +9°C° 0 mm 2 m/s 751 mmHg 85%

23 Mai, Duminică

Timp Temperatura Precipitaţii Vânt Presiune Umiditate
00:00 +9°C° 0 mm 2 m/s 751 mmHg 88%
01:00 +9°C° 0 mm 2 m/s 751 mmHg 92%
02:00 +8°C° 0 mm 2 m/s 751 mmHg 95%
03:00 +9°C° 0 mm 2 m/s 751 mmHg 93%
04:00 +9°C° 0 mm 2 m/s 751 mmHg 91%
05:00 +10°C° 0 mm 2 m/s 751 mmHg 89%
06:00 +13°C° 0 mm 2 m/s 750 mmHg 81%
07:00 +14°C° 0 mm 2 m/s 750 mmHg 73%
08:00 +16°C° 0 mm 3 m/s 749 mmHg 65%
09:00 +17°C° 0 mm 2 m/s 749 mmHg 64%
10:00 +18°C° 0 mm 2 m/s 748 mmHg 62%
11:00 +19°C° 0 mm 2 m/s 748 mmHg 61%
12:00 +18°C° 0 mm 2 m/s 747 mmHg 68%
13:00 +17°C° 0 mm 2 m/s 746 mmHg 75%
14:00 +17°C° 0 mm 2 m/s 745 mmHg 82%
15:00 +16°C° 0.3 mm 2 m/s 745 mmHg 87%
16:00 +16°C° 0.3 mm 2 m/s 744 mmHg 91%
17:00 +15°C° 0.3 mm 2 m/s 743 mmHg 96%
18:00 +15°C° 0.2 mm 2 m/s 743 mmHg 96%
19:00 +13°C° 0.2 mm 3 m/s 743 mmHg 96%
20:00 +13°C° 0.2 mm 3 m/s 742 mmHg 96%
21:00 +13°C° 0 mm 3 m/s 742 mmHg 96%
22:00 +12°C° 0 mm 4 m/s 742 mmHg 96%
23:00 +12°C° 0 mm 4 m/s 742 mmHg 96%
Arată mai mult

Formular de consimțământ

Meteoprog și furnizorii noștri de servicii pot stoca și accesa date personale, precum cookies, identificatori de dispozitiv sau alte tehnologii similare pe dispozitivul dumneavoastră și procesa astfel de date pentru a personaliza conținutul și reclamele, dar și pentru a oferi caracteristici de social media și pentru a analiza traficul.

  • Stocarea și/sau accesarea informațiilor pe dispozitivul dumneavoastră

    Cookies, identificatori de dispozitiv sau alte informații pot fi stocate sau accesate pe dispozitiv în scopurile indicate mai sus.

  • Reclame și conținut personalizat, evaluarea reclamelor și a conținutului, informații despre audiențe și dezvoltarea produselor

    Reclamele și conținutul pot fi personalizate pe baza unui profil. Pot fi adăugate date suplimentare pentru a personaliza mai bine reclamele și conținutul. Performanța reclamelor și conținutului poate fi măsurată. Pot fi obținute informații despre utilizatorii care au văzut reclamele și conținutul. Aceste date pot fi utilizate pentru a dezvolta sau îmbunătăți experiența utilizatorilor, sistemele și software-ul.

Dând clic pe ‘Sunt de acord’, permiteți utilizarea cookie-urilor menționate, a identificatorilor de dispozitiv, balizelor web sau altor tehnologii similare. Setările pot fi modificate din browser-ul dispozitivului dumneavoastră.

În anumite scopuri, interesele legitime pot prima asupra consimțământului. Puteți citi mai multe informații în acest sens în Politica privind Confidențialitatea Datelor și Cookie.